Overview Statistics Trail Chart Weather Telemetry Raw packets
 

This is the latest recevied weather packets stored in our database for station/object W5GMO. If no packets are shown the sender has not sent any weather packets the latest 10 day(s).

<< 27 28 29 30 31 32 33 >>
Time Temp. Humidity Pressure Rain* Wind** Luminosity Snow
1788452132 27.78° C 1% 1018 hPa 0 mm - 162 W/m² -
1788451828 27.78° C 1% 1018.1 hPa 0 mm - 193 W/m² -
1788451526 27.22° C 1% 1018.1 hPa 0 mm - 316 W/m² -
1788451221 27.22° C 1% 1018 hPa 0 mm - 308 W/m² -
1788450920 27.22° C 1% 1018.5 hPa 0 mm - 283 W/m² -
1788450616 27.78° C 1% 1018.9 hPa 0 mm - 86 W/m² -
1788450312 27.78° C 1% 1018.7 hPa 0 mm - 133 W/m² -
1788450008 27.78° C 1% 1018.6 hPa 0 mm - 195 W/m² -
1788449703 27.78° C 1% 1018.5 hPa 0 mm - 195 W/m² -
1788449399 27.78° C 1% 1018.2 hPa 0 mm - 214 W/m² -
1788449094 27.78° C 1% 1018 hPa 0 mm - 217 W/m² -
1788448790 27.78° C 1% 1017.7 hPa 0 mm - 265 W/m² -
1788448484 27.78° C 1% 1017.7 hPa 0 mm - 252 W/m² -
1788448179 27.22° C 1% 1017.8 hPa 0 mm - 356 W/m² -
1788447874 26.67° C 1% 1017.8 hPa 0 mm - 415 W/m² -
1788447574 26.67° C 1% 1017.7 hPa 0 mm - 322 W/m² -
1788447269 26.67° C 1% 1017.7 hPa 0 mm - 327 W/m² -
1788446964 26.67° C 1% 1017.8 hPa 0 mm - 252 W/m² -
1788446663 26.67° C 1% 1017.8 hPa 0 mm - 261 W/m² -
1788446359 26.67° C 1% 1017.6 hPa 0 mm - 284 W/m² -
1788446056 27.22° C 1% 1017.4 hPa 0 mm - 311 W/m² -
1788445751 27.22° C 1% 1017.5 hPa 0 mm - 645 W/m² -
1788445447 26.67° C 1% 1017.3 hPa 0 mm - 329 W/m² -
1788445142 26.67° C 1% 1017.4 hPa 0 mm - 350 W/m² -
1788444838 26.11° C 1% 1017 hPa 0 mm - 514 W/m² -

* Rain latest hour (hover to see other rain measurements)
** Current wind speed in m/s (hover to see current wind gust speed)